Weather in Stolbishche

Russia / Republic of Tatarstan     55°38′33″N   49°13′02″E
temp.,
°C
wind,
m/s
gust,
m/s
humid.,
%
clouds,
%
prec.,
mm/h
press.,
hPa
HPBL,
m
12 august, fri
fri1200:00+14se00705 0.0 102411
03:00+14sw127072 0.0 102412
06:00+16w236553 0.0 1024110
09:00+21wnw3554100 0.0 1024761
12:00+23w4449100 0.0 10231492
15:00+24w56436 0.0 10211587
18:00+22w47545 0.0 1021309
21:00+17w36685 0.0 1021110
13 august, sat
sat1300:00+16w34725 0.0 102154
03:00+15wnw347399 0.0 102175
06:00+17wnw367050 0.0 1021201
09:00+23nw345611 0.0 1021608
12:00+26nw44446 0.0 10201800
15:00+26nnw4440100 0.0 10201995
18:00+23nne3655100 0.0 1020207
21:00+18ne2365100 0.0 102135
14 august, sun
sun1400:00+17ene1167100 0.0 102112
03:00+15ese117329 0.0 102112
06:00+18sse1168100 0.0 102250
09:00+22s225423 0.0 1022526
12:00+26s2242100 0.0 10211622
15:00+26s224199 0.0 10201786
18:00+23s3354100 0.0 1020181
21:00+19sw225888 0.0 102121
15 august, mon
mon1500:00+19wsw116098 0.0 102115
03:00+19wnw1159100 0.0 102114
06:00+19nne2269100 0.0 102282
09:00+22ne22615 0.0 1022492
12:00+26ne334816 0.0 10221751
15:00+25nne454888 0.0 1022624
18:00+23ne36530 0.0 1022236
21:00+18ne33630 0.0 102339
16 august, tue
tue1600:00+16ne22690 0.0 102430
03:00+15ne22700 0.0 102521
06:00+16ne24680 0.0 1026130
09:00+22ene44500 0.0 1026628
12:00+25ene33390 0.0 10261545
15:00+25ene44364 0.0 10251790
18:00+22ene35505 0.0 1025221
21:00+17ene23590 0.0 102634